カタログに戻る

COSMOS 2270

運用中軍事PO
NORAD 23001·PAYLOAD·🇷🇺 Russia

打ち上げ Feb 12, 1994 から Plesetsk Cosmodrome

Loading…

次のパス (今後24時間)

TLE

最新Source: Space-Track

元期: Sep 14, 2026, 17:25 UTC

1 23001U 94011C   26257.72612082  .00000001  00000-0 -54372-4 0  9998
2 23001  82.5681 256.5745 0006986 346.0920 187.3270 12.62937351501952

AllMySatでCOSMOS 2270をリアルタイム追跡

Download on the App Store